Torna al catalogo

USA 74

AttivoMilitareLEO
NORAD 21799·PAYLOAD·🇺🇸 United States

Lanciato Nov 8, 1991 da Vandenberg Space Force Base

Loading…

Prossimi Passaggi (prossime 24 ore)

TLE

AggiornatoSource: Space-Track

Epoca: Sep 14, 2026, 00:18 UTC

1 21799U 91076C   26257.01293147  .00003338  00000-0  24535-3 0  9999
2 21799  63.2921 264.4268 0881092  74.9859 294.6900 13.62536594115703

Traccia USA 74 in tempo reale con AllMySat

Download on the App Store